Weather in Naifaru

Maldives     5°26′35″N   73°21′58″E
temp.,
°C
wind,
m/s
gust,
m/s
humid.,
%
clouds,
%
prec.,
mm/h
press.,
hPa
HPBL,
m
15 april, thu
thu1523:00+29wsw11675 0.3 1012815
02:00+27sw227599 3.5 1010118
05:00+28wsw337297 5.9 1010491
08:00+28sw33716 0.2 1013788
11:00+29sw337197 0.2 1012896
14:00+29wsw4472100 0.0 1009945
17:00+29wsw447249 0.1 1009915
20:00+29w447215 0.1 1011877
16 april, fri
fri1623:00+28w337381 2.9 1011384
02:00+28wsw3371100 2.4 1009592
05:00+28wsw337199 4.2 1009447
08:00+29wsw226875 0.1 1012809
11:00+29sw3371100 1.3 1012645
14:00+29w3369100 0.0 1009834
17:00+29w3369100 0.0 1009926
20:00+29w1268100 0.0 1011754
17 april, sat
sat1723:00+29wsw226997 0.0 1011777
02:00+29wsw227148 0.1 1009621
05:00+28ssw337362 0.5 1010650
08:00+28ssw227247 0.0 1012651
11:00+29sw227015 0.4 1012782
14:00+29wsw22699 0.1 1010829
17:00+29wsw226838 1.3 1010789
20:00+29sw227031 0.2 1013730
18 april, sun
sun1823:00+29sw327280 0.6 1013618
02:00+28sw3373100 0.4 1011579
05:00+28ssw337296 4.1 1012556
08:00+29ssw447192 0.0 1014887
11:00+29ssw337193 0.0 1013841
14:00+29ssw227053 0.0 1011861
17:00+29sw337020 0.9 1011851
20:00+29sw337227 2.4 1013715
19 april, mon
mon1923:00+29sw437266 2.6 1013834
02:00+28wsw337546 3.9 1011389
05:00+28wsw447255 8.1 1011523
08:00+29wsw337127 1.0 1013691
11:00+29wsw337019 1.3 1013856
14:00+29wsw33705 0.0 1010860
17:00+29w337097 0.2 1010899
20:00+29wsw447040 0.1 1012857